Showing default

CHINASAT 1A, 37804

Orbit data source: Space-Track

CHINASAT 1A, 37804 is a payload satellite owned by PLA GAD (CN) in GEO that was launched on Sat, 17 Sep 2011 UTC via a CHANG ZHENG 3B launch vehicle from the Xichang Space Center, China (XSC). Payload-class satellites include a variety of spacecraft equipped with specific instruments for various scientific and technological missions. These include communications satellites like Starlink; space stations such as the ISS; scientific satellites like the Hubble; Earth observation satellites from companies like Planet Labs, Umbra, and HawkEye 360; GPS; miniature CubeSats for education and research; and military/defense satellites.

Not visible in the next 10 days
Identifier
37804, 2011-047A
Orbit
GEO
Country
Flag of CNCN / PRC
Related business
Manufacturer
CAST
Mission
Non-operational Defense Communications
Bus & Motor
DFH-4, FY
Mass
5,320 kg wet, ~2,500 kg dry
Launch date (UTC)
2011-09-17 (15 years ago)
Launch vehicle
CHANG ZHENG 3B
Launch site
Xichang Space Center, China (XSC)
Object type
Payload
Rocket body
Debris
Shape & HBR
Box + 2 Pan, 7.8 m
Radar Cross Section
19.960 m², Large (>1 m²)

Expand to show TLE details & history
Last TLE update: 14 hours ago

TLE from 14 hours ago
0 CHINASAT 1A
1 37804U 11047A   26247.18188440  .00000013  00000-0  00000-0 0  9994
2 37804   3.9144  77.3270 0001180 233.7802 166.8056  1.00017878 28123
Epoch: 2026-09-04T04:21Z
TLE epoch observation values (Epoch: 2026-09-04T04:21:54.812Z)
Latitude
2.53779°
Longitude
69.05046°
Altitude
35,861.989 km
Speed
3.072 km/s
True Right ascension
07h 51m 21s
True Declination
2° 32' 07"
Sunlit
Object was in daylight at epoch
Visualization orbit readout
Latitude
Unknown
Longitude
Unknown
Altitude
Unknown
Speed
Unknown
Apparent Right ascension
Unknown
Apparent Declination
Unknown
Sunlit
N/A
Visualization observer readout
Local Sidereal Time
09:48:02
Azimuth
Unknown
Elevation
Unknown
Doppler factor
Unknown
Orbital elements
Apogee altitude
35,863.97 km
Perigee altitude
35,854.002 km
Semi-major axis
42,237.123 km
Eccentricity
0.00012
Inclination
3.9144°
RAAN
77.327°
Arg. of periapsis
233.7802°
True anomaly
166.80869°
Mean anomaly
166.8056°
Eccentric anomaly
166.80714°
Mean motion
0.25004 °/min
Orbital period
1,439.8 mins
BSTAR
0
Loading maneuver chart data...
Computing Atmospheric mass density...
Loading historical data...
Loading historical data...
Loading historical data...
Loading historical data...
Loading historical data...
Loading historical data...
Loading historical data...
Other satellites on launch #47 in the year 2011 (2011-09-17 UTC)

Documentation

Showing up to 5 results
|